Home > Weather > Kolding > Past weeks

Flag for Denmark Past Weather in Kolding, Denmark — Yesterday and Last 2 Weeks

Now
61 °F

Clear.


Feels Like: 61 °F
Forecast: 65 / 82 °F
Wind: 6 mph from Southeast

Location: Vamdrup

Current Time: Aug 24, 2016 at 8:33:55 AM

Latest Report: Aug 24, 2016 at 7:50 AM


Visibility: 5 mi

Pressure: 30.30 "Hg

Humidity: 94%

Dew Point: 59 °F

Location of KoldingLocation

Past Weather in Kolding — Graph

°F

Kolding Temperature Yesterday

Maximum temperature yesterday: 70 °F (at 3:50 PM)
Minimum temperature yesterday: 57 °F (at 10:50 PM)
Average temperature yesterday: 63 °F

High & Low Weather Summary for the Past Weeks

 TemperatureHumidityPressure
High73 °F (Aug 17, 3:50 PM)100% (Aug 12, 6:20 AM)30.30 "Hg (Aug 12, 6:20 AM)
Low43 °F (Aug 17, 5:50 AM)36% (Aug 17, 3:50 PM)29.77 "Hg (Aug 20, 7:20 AM)
Average58 °F84%30.02 "Hg
* Reported Aug 9 7:20 AM — Aug 24 7:20 AM, Kolding, Weather by CustomWeather, © 2016

Note: Actual official high and low records may vary slightly from our data, if they occured in-between our weather recording intervals... More about our weather records

Advertising

Kolding Weather History for the Previous 24 Hours

Scroll right to see more
 ConditionsComfort  
Time TempWeatherWind HumidityBarometerVisibility
7:20 AM
Wed, Aug 24
59 °FCool.5 mph100%30.27 "HgN/A
6:50 AM57 °FCool.3 mph100%30.27 "HgN/A
6:20 AM57 °FCool.5 mph100%30.27 "HgN/A
5:50 AM57 °FCool.3 mph94%30.27 "HgN/A
5:20 AM55 °FCool.3 mph100%30.27 "HgN/A
4:50 AM55 °FCool.3 mph94%30.27 "HgN/A
4:20 AM54 °FCool.5 mph100%30.30 "HgN/A
3:50 AM52 °FCool.3 mph100%30.30 "HgN/A
3:20 AM52 °FCool.2 mph100%30.30 "HgN/A
2:50 AM54 °FCool.3 mph94%30.30 "HgN/A
2:20 AM54 °FCool.No wind94%30.30 "HgN/A
1:50 AM54 °FCool.2 mph100%30.30 "HgN/A
1:20 AM54 °FCool.1 mph94%30.30 "HgN/A
12:50 AM54 °FCool.1 mph100%30.30 "HgN/A
12:20 AM55 °FCool.No wind94%30.30 "HgN/A
11:50 PM
Tue, Aug 23
57 °FCool.2 mph94%30.30 "HgN/A
11:20 PM57 °FCool.2 mph94%30.30 "HgN/A
10:50 PM57 °FCool.2 mph94%30.30 "HgN/A
10:20 PM59 °FCool.3 mph94%30.30 "HgN/A
9:50 PM59 °FCool.3 mph94%30.30 "HgN/A
9:20 PM59 °FCool.1 mph94%30.30 "HgN/A
8:50 PM61 °FCool.2 mph88%30.30 "HgN/A
8:20 PM64 °FMild.1 mph78%30.30 "HgN/A
7:50 PM66 °FMild.2 mph78%30.30 "HgN/A
7:20 PM66 °FMild.3 mph78%30.30 "HgN/A
6:50 PM66 °FMild.7 mph78%30.30 "HgN/A
6:20 PM66 °FMild.9 mph78%30.30 "HgN/A
4:50 PM68 °FPartly sunny.8 mph78%30.27 "HgN/A
3:50 PM70 °FPartly sunny.8 mph69%30.30 "HgN/A
2:50 PM68 °FPartly sunny.9 mph78%30.30 "HgN/A
1:50 PM68 °FPartly sunny.9 mph78%30.27 "HgN/A
12:50 PM66 °FPartly sunny.9 mph83%30.27 "HgN/A
11:50 AM64 °FPartly sunny.9 mph88%30.27 "HgN/A
10:50 AM64 °FPartly sunny.8 mph88%30.27 "HgN/A
9:50 AM64 °FPartly sunny.9 mph88%30.24 "HgN/A
8:50 AM63 °FPartly sunny.8 mph94%30.24 "HgN/A
Weather by CustomWeather, © 2016

See weather overviewHow to use our weather pages